Location: Bonningues
(50.7927°N, 2.0150°E)
Time: 16:05:41
(UTC+00:00)

CENTAUR R/B - Pass Details

Date: 08 August 2020
Orbit: 754 x 1434 km, 63.5° (Epoch: 17 September)

Event Time Altitude Azimuth Distance (km) Brightness Sun altitude
Exits shadow 21:04:49 19° 140° (SE) 2,077 3.6 -13.4°
Maximum altitude 21:07:10 23° 109° (ESE) 1,928 3.6 -13.7°
Drops below altitude 10° 21:12:18 10° 60° (ENE) 2,917 4.9 -14.2°
Sets 21:15:43 0° 48° (NE) 4,006 5.7 -14.6°
